Location: Kassa
(14.7247°N, 3.0663°W)
Time: 13:51:49
(UTC+00:00)

Daily predictions for brighter satellites

Satellite Brightness Start Highest point End
(mag) Time Altitude Azimuth Time Altitude Azimuth Time Altitude Azimuth
Cosmos 1814 Rocket 4.3 17:53:39 10° SSW 17:58:55 74° WNW 18:04:08 10° N
GPS 2-15 Rocket1 3.6 17:54:50 10° WNW 17:59:20 46° N 18:03:47 10° ENE
CZ-2C R/B 4.5 17:57:44 10° S 18:02:40 44° W 18:07:22 10° NNW
SKYMED 2 3.6 18:00:45 10° NNE 18:05:06 86° ESE 18:09:26 10° S
Lacrosse 5 3.8 18:04:01 10° NW 18:08:37 35° WSW 18:13:13 10° S
PSLV R/B 3.7 18:05:15 10° SSE 18:08:50 56° ENE 18:12:26 10° N
Landsat 5 3.3 18:05:25 10° NNE 18:09:20 63° E 18:13:09 10° S
Cosmos 1500 Rocket 4.4 18:05:21 10° NNW 18:09:38 55° W 18:13:53 10° S
ATLAS 5 CENTAUR R/B 2.8 17:53:40 10° WSW 18:12:28 71° SSE 18:17:01 10° E
Cosmos 1500 3.5 18:09:17 10° NNE 18:12:48 41° E 18:16:19 10° SSE
CZ-2C R/B 2.7 18:08:11 10° N 18:13:20 79° WNW 18:18:32 10° SSW
deb Chang Zheng 4 4.3 18:15:58 10° SE 18:19:45 31° ENE 18:23:32 10° NNE
Cosmos 1805 Rocket 3.7 18:16:55 10° N 18:21:14 78° W 18:25:34 10° S
Sich 1 2.9 18:17:27 10° N 18:21:45 76° E 18:26:05 10° S
Cosmos 1515 Rocket 4.1 18:18:12 10° SSE 18:22:18 37° E 18:26:25 10° NNE
Cosmos 1867 3.9 18:17:31 10° S 18:22:37 45° ESE 18:27:45 10° NE
Cosmos 44 3.0 18:18:15 10° NNW 18:22:41 85° WSW 18:26:57 10° SSE
H-2A R/B 3.4 18:21:17 11° NE 18:24:26 22° E 18:27:51 10° SSE
Cosmos 1898 Rocket 3.4 18:19:17 10° N 18:24:27 72° ENE 18:29:35 10° SSE
H-2A R/B 2.0 18:20:41 10° SSE 18:25:59 72° ENE 18:31:10 10° N
Cosmos 1092 Rocket 4.4 18:21:02 10° N 18:27:18 68° W 18:33:31 10° S
Aurora 2 Rocket 4.1 18:25:03 10° NW 18:29:56 35° NNE 18:34:50 17° ENE
Ariane H10-3 4.3 18:27:31 10° SW 18:30:43 38° SSE 18:42:39 10° E
GPS 2-14 Rocket1 4.3 18:28:44 10° W 18:32:09 31° SSW 18:35:38 10° SE
APEX 4.0 18:30:39 10° SSW 18:35:52 68° WNW 18:40:00 10° N
Cosmos 2084 4.0 18:32:42 10° N 18:36:56 39° ENE 18:41:17 10° SE
USA 32 4.5 18:33:12 10° SSE 18:38:01 39° E 18:42:50 10° NNE
Cosmos 1666 2.6 18:38:50 10° N 18:42:26 54° E 18:46:04 10° SSE
CZ-4C R/B 3.9 18:40:03 10° N 18:43:15 46° WNW 18:46:32 10° SSW
YAOGAN 1 3.6 18:44:46 10° SE 18:47:28 24° E 18:47:28 24° E
Meteor 1-14 Rocket 4.3 18:43:27 10° N 18:49:21 74° E 18:55:18 10° S
Cosmos 921 Rocket 4.2 18:47:10 10° SSW 18:51:04 39° WNW 18:54:59 10° N
Meteor 2-16 Rocket 4.4 18:44:57 10° N 18:51:05 80° E 18:57:12 10° S
Meteor 2-15 Rocket 4.4 18:47:03 10° S 18:53:12 88° E 18:59:20 10° N
Cosmos 1697 Rocket 2.8 18:49:02 10° NNW 18:54:38 79° WSW 19:00:14 10° SSE
DMSP B5D1-3 4.5 18:49:41 10° NNE 18:54:49 89° WNW 18:59:55 10° SSW
Okean O Rocket 1.5 18:53:34 10° SSE 18:57:59 90° WSW 19:02:26 10° NNW
Cosmos 2369 3.6 18:52:40 10° N 18:58:19 65° ENE 19:03:56 10° SSE
Cosmos 1980 Rocket 2.3 18:53:17 10° N 18:58:39 46° ENE 19:03:59 10° SE
Cosmos 2266 Rocket 4.3 18:54:26 10° NNE 19:00:30 45° E 19:06:33 10° SSE
Meteor 1-5 Rocket 4.2 18:55:06 10° N 19:01:01 84° E 19:06:47 10° S
Aureole 3 Rocket 2.3 19:01:15 10° S 19:04:22 79° E 19:05:01 55° NNE
Cosmos 1633 Rocket 3.2 19:00:48 10° N 19:05:09 75° W 19:09:32 10° S
Cosmos 1937 Rocket 4.2 19:00:40 10° NNW 19:05:51 57° WSW 19:11:00 10° S
Meteor 1-27 Rocket 3.6 19:00:49 10° S 19:06:25 89° E 19:11:40 11° N
SWIFT 2.6 19:04:11 10° WNW 19:08:17 47° N 19:08:28 46° NNE
H-2A R/B 4.2 19:04:46 10° SW 19:11:32 19° S 19:13:20 15° SE
Tiangong 3.0 19:09:55 10° W 19:12:29 22° NW 19:12:33 22° NW
Meteosat 1 Rocket2 2.8 19:09:21 10° WSW 19:13:12 58° NNW 19:13:17 58° NNW
ARGOS 3.6 19:09:59 10° S 19:15:20 61° WSW 19:20:40 10° NNW
USA 234 3.3 19:10:53 17° ESE 19:15:55 56° NE 19:22:17 10° NNW
Cosmos 482 Debris 4.4 19:16:11 10° SSW 19:18:30 57° SSW 19:18:30 57° SSW
USA 229 DEB 4.1 19:11:36 10° NNW 19:19:23 81° WSW 19:27:20 10° SSE
USA 229 4.1 19:11:42 10° NNW 19:19:29 81° WSW 19:27:25 10° SSE
Cosmos 372 Rocket 4.2 19:14:45 10° NNW 19:19:58 72° WSW 19:25:10 10° S
NOSS 3-3 (A) 4.2 19:15:37 10° SW 19:20:50 55° WNW 19:23:55 25° N
NOSS 3-3 (C) 4.2 19:15:42 10° SW 19:20:56 55° WNW 19:23:59 26° N
CZ-4 R/B 2.1 19:18:36 10° SSE 19:21:26 42° SSE 19:21:26 42° SSE
Cosmos 2278 4.2 19:17:15 10° N 19:27:21 15° SSE 19:28:17 10° SSE
Delta 2 Rocket 3.6 19:22:48 10° SW 19:26:25 60° SW 19:26:25 60° SW
GPS 2-12 Rocket1 3.3 19:25:06 10° WSW 19:29:02 57° SSW 19:29:02 57° SSW
H-2A R/B 4.5 18:00:35 10° WNW 19:29:40 70° NNE 19:36:11 38° E
NOAA 15 4.5 19:26:16 10° SSE 19:31:34 88° WSW 19:36:52 10° NNW
Cosmos 1655 Rocket 4.0 19:25:33 10° N 19:31:54 84° W 19:38:13 10° S
Cosmos 1470 Rocket 4.0 19:31:33 35° NNW 19:33:16 61° W 19:37:41 10° S
Cosmos 2228 Rocket 3.7 19:36:42 10° SSW 19:40:17 52° SW 19:40:17 52° SW
Cosmos 1833 4.2 19:35:52 10° SSW 19:41:28 75° WNW 19:42:01 69° NNW
Atlas Centaur 2 3.8 19:39:52 10° WSW 19:41:58 15° SSW 19:42:57 14° SSW
GPS 2-15 Rocket1 4.4 19:39:19 10° WNW 19:42:04 32° NW 19:42:04 32° NW
Sakura Rocket 4.0 19:41:02 10° WNW 19:45:16 45° WSW 19:45:16 45° WSW
Gbstr 26 Del rocket 4.3 19:46:51 10° SSW 19:51:45 48° S 19:51:45 48° S
ARIANE 5 R/B 4.0 19:57:35 10° SSW 19:58:16 15° SSW 19:58:16 15° SSW
Meteor 1-11 Rocket 4.2 20:01:11 58° SW 20:01:11 58° SW 20:06:18 10° S
CZ-4C R/B 3.9 20:01:06 10° NNW 20:05:34 37° N 20:05:34 37° N
